Regional Weather Roundup
Issued by NWS Lake Charles, LA

Current Version | Previous Version | Text Only | Print | Product List | Glossary On
Versions: 1 2 3 4 5 6 7 8 9 10 11 12 13 14 15 16 17 18 19 20 21 22 23 24 25 26 27 28 29 30 31 32 33 34 35 36 37 38 39 40 41 42 43 44 45 46 47 48 49 50
105
ASUS44 KLCH 260510
RWRLCH
REGIONAL WEATHER ROUNDUP
NATIONAL WEATHER SERVICE LAKE CHARLES LA
1200 AM CDT THU APR 26 2018

Note: "fair" indicates few or no clouds below 12,000 feet with no
significant weather and/or obstructions to visibility.


ACROSS SOUTHEAST TEXAS

CITY           SKY/WX    TMP DP  RH WIND       PRES   REMARKS
BEAUMONT       CLOUDY    69  59  70 NW13      29.96F
BEAUMONT CITY  CLOUDY    68  54  61 N12       30.00R
ORANGE         CLOUDY    71  64  77 NW9       29.99R
JASPER         CLOUDY    65  56  73 NW7       30.03S
$$

ACROSS CENTRAL LOUISIANA

CITY           SKY/WX    TMP DP  RH WIND       PRES   REMARKS
LEESVILLE      CLOUDY    64  56  76 NW12      29.96S
FULLERTON      CLOUDY    65  56  72 VRB3      29.94F
ALEXANDRIA INT LGT RAIN  62  59  90 NW13      29.92S
ESLER FIELD    LGT RAIN  62  59  90 NW6       29.94R
DERIDDER       MOCLDY    64  59  86 NW7       29.99S
OAKDALE        CLOUDY    69  57  65 NW7       29.94R
OPELOUSAS      CLOUDY    70  62  77 SW9       29.92F
$$

ACROSS SOUTHWEST AND SOUTH CENTRAL LOUISIANA

CITY           SKY/WX    TMP DP  RH WIND       PRES   REMARKS
SULPHUR        CLOUDY    73  62  69 W6        29.96F
LAKE CHARLES   CLOUDY    73  63  70 NW10      29.95S
CHENNAULT INT  CLOUDY    72  62  70 W12       29.95F
CAMERON PHI    CLOUDY    72  68  88 SW7       29.96F
DEQUINCY       CLOUDY    69  61  74 NW10G16   29.96F
JENNINGS       MOCLDY    70  64  82 SW9       29.94F
LAFAYETTE      CLOUDY    70  64  81 SW10      29.94S
NEW IBERIA     FAIR      68  62  81 W8        29.95S
ABBEVILLE      MOCLDY    69  66  91 SW8       29.95S
PATTERSON      FAIR      66  65  96 S7        29.94F
SALT POINT       N/A    N/A N/A N/A VRB5      29.93F
$$

SELECTED SITES ACROSS THE REGION

CITY           SKY/WX    TMP DP  RH WIND       PRES   REMARKS
HOUSTON BUSH   MOCLDY    65  53  65 N14       30.03R
HOUSTON HOBBY  MOCLDY    68  53  58 NW13      30.02R
GALVESTON      MOCLDY    72  63  73 W17       30.00R
COLLEGE STAT   PTCLDY    56  51  84 N12       30.08F
CONROE         CLOUDY    61  54  77 N12G20    30.04F
HUNTSVILLE     CLOUDY    59  52  77 NW8       30.06F
LUFKIN         CLOUDY    59  53  80 NW7       30.04F
SHREVEPORT     CLOUDY    55  52  89 NW15G23   30.01S
MONROE         LGT RAIN  62  60  93 W12       29.94R
NATCHEZ MS     CLOUDY    70  59  68 SW7       29.89S
BATON ROUGE    FAIR      69  61  75 SW13G21   29.92S
N.O. INTL ARPT FAIR      69  63  81 SW7       29.92F
SLIDELL        FAIR      63  59  87 S3        29.91F
$$

MARINE REPORTS

STATION/POSITION TIME  SKY/WX   TEMP    WIND        PRES    VSBY
                                AIR SEA DIR/SP/G
                 (UTC)          (F)     (DEG/KT/KT) (MB)    (MI)
BUOY 30 S HIGH I NOT AVBL
SEA RIM ST PARK  0500            72     240/ 12/ 17 1014.8F
PORT ARTHUR      0448            71 69  310/  8/ 10 1014.8F
SABINE PASS N    0448            72 73  240/  5/ 10 1015.9F
TEXAS POINT      NOT AVBL
CALCASIEU PASS   0448            72 72  260/ 11/ 13 1013.6F
LK CHARLES BEACH 0448            72 72              1013.8S
MARSH ISLAND     0400            73                   N/A
FRESH WATER LOCK 0448            72 75              1014.1F
AMERADA PASS     0448            70 66  220/  3/  7 1014.3S
$$




USA.gov is the U.S. government's official web portal to all federal, state and local government web resources and services.